RYR6BQ GMTT-GMMX

Flight info

Callsign RYR6BQ
Flight time N/A
Altitude 33000
Route SOBMA2D SOBMA UN10 BARIS UB11 MABAP MABAP4A
Aircraft B738/M-SDE2E3FGHIRWXY/LB1

Departure

Time N/A
Airport Tangier Ibn Battuta Airport (GMTT)

Arrival

Time 2026-05-04 19:30
Airport Marrakesh Menara Airport (GMMX)
Time Latitude Longitude Altitude Speed Heading
2026-05-04 19:24 31.66623 -7.79695 5447 ft 269 kts 132°
2026-05-04 19:25 31.65048 -7.78569 5247 ft 268 kts 164°
2026-05-04 19:25 31.63220 -7.78527 5061 ft 264 kts 193°
2026-05-04 19:25 31.61573 -7.79396 4870 ft 260 kts 219°
2026-05-04 19:25 31.60280 -7.80832 4718 ft 252 kts 216°
2026-05-04 19:26 31.58703 -7.81459 4592 ft 237 kts 184°
2026-05-04 19:26 31.57196 -7.81983 4523 ft 220 kts 218°
2026-05-04 19:26 31.56405 -7.83410 4331 ft 206 kts 265°
2026-05-04 19:26 31.56693 -7.84910 4187 ft 182 kts 314°
2026-05-04 19:27 31.57522 -7.85940 4048 ft 176 kts 302°
2026-05-04 19:27 31.57960 -7.87279 3928 ft 176 kts 296°
2026-05-04 19:27 31.58442 -7.88599 3740 ft 175 kts 297°
2026-05-04 19:27 31.58911 -7.89889 3591 ft 169 kts 297°
2026-05-04 19:28 31.59373 -7.91171 3384 ft 172 kts 297°
2026-05-04 19:28 31.59698 -7.92517 3160 ft 173 kts 283°
2026-05-04 19:28 31.59837 -7.93912 2924 ft 170 kts 279°
2026-05-04 19:28 31.59953 -7.95252 2635 ft 163 kts 279°
2026-05-04 19:29 31.60065 -7.96546 2418 ft 154 kts 280°
2026-05-04 19:29 31.60173 -7.97821 2278 ft 160 kts 282°
2026-05-04 19:29 31.60291 -7.99148 2085 ft 166 kts 278°
2026-05-04 19:29 31.60412 -8.00490 1824 ft 163 kts 279°
2026-05-04 19:30 31.60524 -8.01766 1638 ft 156 kts 279°
2026-05-04 19:30 31.60631 -8.02988 1551 ft 138 kts 277°
2026-05-04 19:30 31.60715 -8.03914 1530 ft 84 kts 276°
2026-05-04 19:30 31.60747 -8.04362 1536 ft 16 kts 245°
2026-05-04 19:31 31.60673 -8.04396 1540 ft 8 kts 182°
2026-05-04 19:31 31.60637 -8.04399 1541 ft 5 kts 185°
2026-05-04 19:31 31.60603 -8.04397 1539 ft 7 kts 158°
2026-05-04 19:31 31.60577 -8.04313 1547 ft 15 kts 96°
2026-05-04 19:32 31.60562 -8.04157 1547 ft 25 kts 96°
2026-05-04 19:32 31.60541 -8.03907 1544 ft 33 kts 96°
2026-05-04 19:32 31.60517 -8.03644 1544 ft 33 kts 96°
2026-05-04 19:32 31.60494 -8.03380 1547 ft 33 kts 96°
2026-05-04 19:33 31.60469 -8.03102 1543 ft 34 kts 96°
2026-05-04 19:33 31.60446 -8.02834 1548 ft 32 kts 96°
2026-05-04 19:33 31.60426 -8.02592 1541 ft 24 kts 95°
2026-05-04 19:33 31.60419 -8.02543 1548 ft 3 kts 122°
2026-05-04 19:34 31.60402 -8.02536 1544 ft 3 kts 178°
2026-05-04 19:34 31.60353 -8.02540 1538 ft 10 kts 186°
2026-05-04 19:34 31.60307 -8.02546 1545 ft 0 kts 186°